Preview of NWS' New Version of Forecast
This preview is not operational and should not be used for support decisions.

Regional Weather Roundup (RWR)

Issued by Gray - Portland, ME (GYX)

                            
000
ASUS41 KGYX 250205
RWRGYX
WEATHER ROUNDUP FOR MAINE AND NEW HAMPSHIRE
NATIONAL WEATHER SERVICE GRAY ME
1000 PM EDT MON JUN 24 2019

MEZ002-005-006-010-012-015-018-020-021-024-026-027-029-250300-
MAINE
  
CITY           SKY/WX    TMP DP  RH WIND       PRES   REMARKS
PORTLAND       FAIR      60  52  74 CALM      29.89R                  
SANFORD        FAIR      52  50  93 CALM      29.90R                  
BAR HARBOR     FAIR      55  47  74 CALM      29.91R                  
WISCASSET      FAIR      53  49  86 CALM      29.91R                  
ROCKLAND       FAIR      52  47  83 CALM      29.91R                  
FRYEBURG       FAIR      57  54  89 CALM      29.89R                  
LEWISTONAUBURN FAIR      59  51  75 CALM      29.90R                  
AUGUSTA        FAIR      60  47  61 CALM      29.90R                  
WATERVILLE     FAIR      57  48  72 CALM      29.87R                  
BANGOR         FAIR      58  47  66 CALM      29.90R                  
GREENVILLE       N/A     57  41  55 CALM      29.90R                  
MILLINOCKET    FAIR      57  46  66 CALM      29.90R                  
HOULTON        FAIR      50  45  83 CALM      29.89R                  
PRESQUE ISLE   FAIR      52  46  80 CALM      29.91R                  
FRENCHVILLE    FAIR      63  34  33 N5        29.90R                  
CARIBOU        FAIR      58  38  47 CALM      29.89R                  
$$

NHZ002-005-008-009-011-012-014-250300-
NEW HAMPSHIRE
  
CITY           SKY/WX    TMP DP  RH WIND       PRES   REMARKS
PORTSMOUTH     MOCLDY    60  54  82 E6        29.86R                  
ROCHESTER      FAIR      58  50  75 CALM      29.88R                  
NASHUA         FAIR      69  51  52 CALM      29.87R                  
MANCHESTER     MOCLDY    70  47  43 CALM      29.85R                  
CONCORD        FAIR      66  48  52 SE3       29.87R                  
LACONIA        FAIR      64  54  69 CALM      29.87R                  
PLYMOUTH       FAIR      58  55  88 CALM      29.87R                  
BERLIN         FAIR      52  47  83 CALM      29.90R                  
WHITEFIELD     FAIR      54  49  83 CALM      29.89R                  
JAFFREY        FAIR      64  57  78 CALM      29.89R                  
KEENE          FAIR      63  59  87 CALM      29.85R                  
LEBANON        FAIR      62  53  72 CALM      29.86R                  
MT WASHINGTON  MOCLDY    46  30  53 W10         N/A                   
$$

VTZ005-007-008-250300-
VERMONT
  
CITY           SKY/WX    TMP DP  RH WIND       PRES   REMARKS
ST JOHNSBURY     N/A     62  51  67 MISG      29.86R                  
MONTPELIER     FAIR      59  51  75 CALM      29.91R                  
BURLINGTON     MOCLDY    67  55  65 E3        29.83R                  
$$

MAZ007-012-024-CTZ003-RIZ002-NYZ038-NYZ072-250300-
SOUTHERN NEW ENGLAND AND NY
  
CITY           SKY/WX    TMP DP  RH WIND       PRES   REMARKS
BOSTON         CLOUDY    65  58  78 E8        29.86R                  
WORCESTER      CLEAR     70  55  60 W5        29.88R                  
NANTUCKET      FAIR      60  56  86 SE10      29.89R                  
PROVIDENCE     MOCLDY    74  56  53 W8        29.86R                  
HARTFORD       MOCLDY    76  58  53 S8        29.84R                  
ALBANY         CLOUDY    75  57  53 SE5       29.83R                  
NEW YORK CITY  MOCLDY    76  66  71 S10       29.82S                  
$$

ANZ081-ANZ082-ANZ150-NHZ014-MEZ023>029-250300-
COASTAL MARINE OBSERVATIONS
  
STATION/POSITION TIME  TEMP    WIND        PRES    WAVE
                       AIR SEA DIR/SP/G            HT/PER
                 (UTC) (F)     (DEG/KT/KT) (MB)    (FT/S)
ISLE OF SHOALS   0100   61     140/  7/  7 1010.8R
JEFFREYS LEDGE   0138      59                N/A     2/ 3
CASHES LEDGE BUO 0150   57 56  180/ 10/ 12 1012.7R   1/ 9
GEORGES BANK BUO 0150   54 53   40/  4/  6 1014.2R   3/ 6
$$

.............KEY..............
   WCI - WIND CHILL
   TC  - TEMPERATURE IN CELSIUS
   VSB - VISIBILITY IN MILES
   HX  - HEAT INDEX
   FAIR- INDICATES FEW OR NO CLOUDS BELOW 12,000 FT, WITH NO 
         SIGNIFICANT WEATHER AND/OR OBSTRUCTIONS TO VISIBILITY.